Location: Albany
(42.6526°N, 73.7562°W)
Time: 22:12:08
(UTC+00:00)

Cosmos 1515 Rocket - Pass Details

Date: 19 November 2019
Orbit: 605 x 631 km, 82.5° (Epoch: 10 December)

Event Time Altitude Azimuth Distance (km) Brightness Sun altitude
Rises 22:23:44 0° 159° (SSE) 2,885 7.0 -10.2°
Reaches altitude 10° 22:26:12 10° 147° (SSE) 1,979 6.0 -10.6°
Maximum altitude 22:29:53 27° 89° (E) 1,189 4.5 -11.2°
Drops below altitude 10° 22:33:35 10° 32° (NNE) 1,979 5.7 -11.9°
Enters shadow 22:34:14 - 28° (NNE) 2,210 6.0 -12.0°
